Location: Colonia Mina de C?rbuni
(46.1667°N, 22.7167°E)
Time: 06:30:17
(UTC+00:00)

Vanguard 1 Rocket - Pass Details

Date: 20 April 2024
Orbit: 650 x 4220 km, 34.3° (Epoch: 26 May)

Event Time Altitude Azimuth Distance (km) Brightness Sun altitude
Rises 21:21:40 0° 263° (W) 4,061 10.9 -30.0°
Reaches altitude 10° 21:24:20 10° 252° (WSW) 3,430 10.3 -30.2°
Enters shadow 21:28:25 25° 225° (SW) 2,921 9.7 -30.4°
